| time (UTC) | temp F | wind direction | speed MPH | gust MPH | rain 1hr in | rain 24hr in | rain mn in | humidity % | barometer mb |
| 20260507024831 | 43 | 96 | 0.0 | 0.0 | 0.00 | 0.09 | 0.00 | 97 | 1011.4 |
| 20260507024331 | 44 | 96 | 0.0 | 0.0 | 0.00 | 0.09 | 0.00 | 97 | 1011.4 |
| 20260507023831 | 44 | 96 | 0.0 | 0.0 | 0.00 | 0.09 | 0.00 | 97 | 1011.5 |
| 20260507023331 | 44 | 96 | 0.0 | 0.0 | 0.00 | 0.09 | 0.00 | 97 | 1011.4 |
| 20260507022831 | 44 | 96 | 0.0 | 0.0 | 0.00 | 0.09 | 0.00 | 97 | 1011.5 |
| 20260507022331 | 44 | 96 | 0.0 | 0.0 | 0.00 | 0.09 | 0.00 | 97 | 1011.5 |
| 20260507021831 | 44 | 96 | 0.0 | 0.0 | 0.00 | 0.09 | 0.00 | 97 | 1011.6 |
| 20260507021332 | 45 | 96 | 0.0 | 0.0 | 0.00 | 0.09 | 0.00 | 97 | 1011.6 |
| 20260507020832 | 45 | 96 | 0.0 | 0.0 | 0.00 | 0.09 | 0.00 | 96 | 1011.7 |
| 20260507020332 | 45 | 96 | 0.0 | 0.0 | 0.00 | 0.09 | 0.00 | 96 | 1011.6 |
| 20260507015831 | 45 | 96 | 0.0 | 0.0 | 0.00 | 0.09 | 0.00 | 96 | 1011.6 |
| 20260507015331 | 45 | 96 | 0.0 | 0.0 | 0.00 | 0.09 | 0.00 | 97 | 1011.6 |
| 20260507014831 | 45 | 96 | 0.0 | 0.0 | 0.00 | 0.09 | 0.00 | 96 | 1011.6 |
| 20260507014331 | 45 | 96 | 0.0 | 0.0 | 0.00 | 0.09 | 0.00 | 96 | 1011.7 |
| 20260507013832 | 46 | 96 | 0.0 | 0.0 | 0.00 | 0.09 | 0.00 | 96 | 1011.7 |
| 20260507013331 | 46 | 96 | 0.0 | 0.0 | 0.00 | 0.09 | 0.00 | 96 | 1011.8 |
| 20260507012831 | 46 | 96 | 0.0 | 0.0 | 0.00 | 0.09 | 0.00 | 96 | 1011.9 |
| 20260507012331 | 46 | 96 | 0.0 | 0.0 | 0.00 | 0.09 | 0.00 | 96 | 1011.8 |
| 20260507011831 | 46 | 96 | 0.0 | 0.0 | 0.00 | 0.09 | 0.00 | 96 | 1011.9 |
| 20260507011331 | 47 | 96 | 0.0 | 0.0 | 0.00 | 0.09 | 0.00 | 96 | 1012.0 |
| 20260507010831 | 47 | 96 | 0.0 | 0.0 | 0.00 | 0.09 | 0.00 | 96 | 1012.0 |
| 20260507010331 | 47 | 96 | 0.0 | 0.0 | 0.00 | 0.09 | 0.00 | 96 | 1012.0 |
| 20260507005831 | 47 | 96 | 0.0 | 0.0 | 0.00 | 0.09 | 0.00 | 96 | 1012.1 |
| 20260507005332 | 48 | 96 | 0.0 | 0.0 | 0.00 | 0.09 | 0.00 | 96 | 1012.1 |
| 20260507004831 | 48 | 96 | 0.0 | 0.0 | 0.00 | 0.09 | 0.00 | 96 | 1012.2 |
| 20260507004331 | 48 | 96 | 0.0 | 0.0 | 0.00 | 0.09 | 0.00 | 96 | 1012.1 |
| 20260507003830 | 48 | 96 | 0.0 | 0.0 | 0.00 | 0.09 | 0.00 | 95 | 1012.1 |
| 20260507003331 | 48 | 96 | 0.0 | 1.0 | 0.00 | 0.09 | 0.00 | 95 | 1012.2 |
| 20260507002831 | 48 | 96 | 0.0 | 0.0 | 0.00 | 0.09 | 0.00 | 95 | 1012.3 |
| 20260507002331 | 49 | 96 | 0.0 | 0.0 | 0.00 | 0.09 | 0.00 | 95 | 1012.2 |
| 20260507001719 | 49 | 96 | 0.0 | 0.0 | 0.00 | 0.09 | 0.00 | 95 | 1012.2 |
| 20260507001219 | 49 | 96 | 0.0 | 0.0 | 0.00 | 0.09 | 0.00 | 95 | 1012.3 |
| 20260507000719 | 49 | 96 | 0.0 | 0.0 | 0.00 | 0.09 | 0.00 | 94 | 1012.3 |
| 20260507000219 | 50 | 96 | 0.0 | 0.0 | 0.00 | 0.09 | 0.00 | 94 | 1012.4 |
| 20260506235719 | 50 | 96 | 0.0 | 0.0 | 0.00 | 0.09 | 0.00 | 94 | 1012.4 |
| 20260506235219 | 50 | 354 | 0.0 | 0.0 | 0.00 | 0.09 | 0.00 | 94 | 1012.4 |
| 20260506234719 | 51 | 354 | 0.0 | 0.0 | 0.00 | 0.09 | 0.00 | 94 | 1012.5 |
| 20260506234219 | 51 | 354 | 0.0 | 0.0 | 0.00 | 0.09 | 0.00 | 94 | 1012.4 |
| 20260506233719 | 51 | 354 | 0.0 | 1.0 | 0.00 | 0.09 | 0.00 | 94 | 1012.6 |
| 20260506233219 | 51 | 354 | 0.0 | 0.0 | 0.00 | 0.09 | 0.00 | 94 | 1012.6 |
| 20260506232719 | 51 | 354 | 0.0 | 0.0 | 0.00 | 0.09 | 0.00 | 94 | 1012.6 |
| 20260506232219 | 52 | 354 | 0.0 | 0.0 | 0.00 | 0.09 | 0.00 | 94 | 1012.7 |
| 20260506231719 | 52 | 354 | 0.0 | 0.0 | 0.00 | 0.09 | 0.00 | 94 | 1012.8 |
| 20260506231219 | 52 | 354 | 0.0 | 0.0 | 0.00 | 0.09 | 0.00 | 94 | 1012.7 |
| 20260506230719 | 52 | 354 | 0.0 | 1.0 | 0.00 | 0.09 | 0.00 | 94 | 1012.8 |
| 20260506230219 | 52 | 31 | 0.0 | 1.0 | 0.00 | 0.09 | 0.00 | 94 | 1012.8 |
| 20260506225720 | 52 | 347 | 0.0 | 2.0 | 0.00 | 0.09 | 0.00 | 94 | 1012.7 |
| 20260506225219 | 53 | 37 | 0.0 | 1.0 | 0.00 | 0.09 | 0.00 | 93 | 1012.7 |
| 20260506224720 | 53 | 81 | 0.0 | 1.0 | 0.00 | 0.09 | 0.00 | 93 | 1012.8 |
| 20260506224220 | 53 | 38 | 0.0 | 1.0 | 0.00 | 0.09 | 0.00 | 93 | 1012.9 |
| 20260506223720 | 53 | 64 | 1.0 | 2.0 | 0.00 | 0.09 | 0.00 | 93 | 1012.8 |
| 20260506223220 | 53 | 51 | 1.0 | 2.0 | 0.00 | 0.09 | 0.00 | 93 | 1012.9 |
| 20260506222720 | 53 | 51 | 0.0 | 1.0 | 0.00 | 0.09 | 0.00 | 93 | 1012.9 |
| 20260506222220 | 53 | 73 | 1.0 | 2.0 | 0.00 | 0.09 | 0.00 | 93 | 1012.9 |
| 20260506221720 | 53 | 10 | 0.0 | 1.0 | 0.00 | 0.09 | 0.00 | 92 | 1013.0 |
| 20260506221220 | 53 | 23 | 1.0 | 2.0 | 0.00 | 0.09 | 0.00 | 92 | 1013.1 |
| 20260506220720 | 53 | 71 | 0.0 | 0.0 | 0.00 | 0.09 | 0.00 | 92 | 1013.3 |
| 20260506220220 | 53 | 79 | 1.0 | 3.0 | 0.00 | 0.09 | 0.00 | 92 | 1013.3 |
| 20260506215720 | 53 | 53 | 0.0 | 2.0 | 0.00 | 0.09 | 0.09 | 91 | 1013.3 |
| 20260506215220 | 54 | 90 | 0.0 | 1.0 | 0.00 | 0.09 | 0.09 | 91 | 1013.4 |
| 20260506214720 | 54 | 73 | 1.0 | 2.0 | 0.00 | 0.09 | 0.09 | 91 | 1013.4 |
| 20260506214220 | 54 | 80 | 1.0 | 2.0 | 0.00 | 0.09 | 0.09 | 91 | 1013.4 |
| 20260506213720 | 54 | 37 | 2.0 | 7.0 | 0.00 | 0.09 | 0.09 | 91 | 1013.4 |
| 20260506213220 | 54 | 68 | 0.0 | 2.0 | 0.00 | 0.09 | 0.09 | 91 | 1013.4 |
| 20260506212720 | 54 | 59 | 1.0 | 3.0 | 0.00 | 0.09 | 0.09 | 91 | 1013.4 |
| 20260506212221 | 54 | 43 | 1.0 | 3.0 | 0.00 | 0.09 | 0.09 | 91 | 1013.4 |
| 20260506211720 | 54 | 75 | 0.0 | 0.0 | 0.00 | 0.09 | 0.09 | 91 | 1013.4 |
| 20260506211220 | 54 | 354 | 0.0 | 1.0 | 0.00 | 0.09 | 0.09 | 91 | 1013.3 |
| 20260506210720 | 54 | 32 | 2.0 | 3.0 | 0.00 | 0.09 | 0.09 | 91 | 1013.4 |
| 20260506210220 | 54 | 12 | 1.0 | 2.0 | 0.00 | 0.09 | 0.09 | 91 | 1013.4 |
| 20260506205720 | 54 | 60 | 1.0 | 2.0 | 0.00 | 0.09 | 0.09 | 90 | 1013.4 |
| 20260506205220 | 54 | 30 | 0.0 | 1.0 | 0.00 | 0.09 | 0.09 | 90 | 1013.4 |
| 20260506204720 | 54 | 326 | 0.0 | 1.0 | 0.00 | 0.09 | 0.09 | 90 | 1013.4 |
| 20260506204220 | 54 | 356 | 0.0 | 1.0 | 0.00 | 0.09 | 0.09 | 90 | 1013.3 |
| 20260506203720 | 54 | 8 | 0.0 | 2.0 | 0.00 | 0.09 | 0.09 | 90 | 1013.3 |
| 20260506203220 | 54 | 332 | 0.0 | 2.0 | 0.00 | 0.09 | 0.09 | 89 | 1013.3 |
| 20260506202720 | 54 | 352 | 0.0 | 2.0 | 0.00 | 0.09 | 0.09 | 89 | 1013.3 |
| 20260506202220 | 54 | 329 | 2.0 | 3.0 | 0.00 | 0.09 | 0.09 | 90 | 1013.3 |
| 20260506201720 | 54 | 311 | 1.0 | 2.0 | 0.00 | 0.09 | 0.09 | 90 | 1013.3 |
| 20260506201220 | 54 | 351 | 1.0 | 3.0 | 0.00 | 0.09 | 0.09 | 90 | 1013.3 |
| 20260506200720 | 54 | 349 | 2.0 | 3.0 | 0.00 | 0.09 | 0.09 | 90 | 1013.2 |
| 20260506200220 | 54 | 352 | 1.0 | 3.0 | 0.00 | 0.09 | 0.09 | 90 | 1013.3 |
| 20260506195719 | 54 | 346 | 0.0 | 1.0 | 0.00 | 0.09 | 0.09 | 91 | 1013.2 |
| 20260506195220 | 54 | 351 | 2.0 | 3.0 | 0.00 | 0.09 | 0.09 | 91 | 1013.2 |
| 20260506194720 | 54 | 1 | 2.0 | 6.0 | 0.00 | 0.09 | 0.09 | 91 | 1013.2 |
| 20260506194219 | 54 | 355 | 1.0 | 1.0 | 0.00 | 0.09 | 0.09 | 91 | 1013.3 |
| 20260506193719 | 54 | 7 | 0.0 | 1.0 | 0.00 | 0.09 | 0.09 | 91 | 1013.3 |
| 20260506193219 | 54 | 16 | 1.0 | 3.0 | 0.00 | 0.09 | 0.09 | 91 | 1013.4 |
| 20260506192719 | 54 | 357 | 0.0 | 1.0 | 0.00 | 0.09 | 0.09 | 91 | 1013.3 |
| 20260506192219 | 54 | 353 | 2.0 | 2.0 | 0.00 | 0.09 | 0.09 | 91 | 1013.4 |
| 20260506191719 | 55 | 50 | 1.0 | 3.0 | 0.00 | 0.09 | 0.09 | 91 | 1013.3 |
| 20260506191219 | 55 | 14 | 0.0 | 1.0 | 0.00 | 0.09 | 0.09 | 91 | 1013.3 |
| 20260506190719 | 55 | 356 | 1.0 | 1.0 | 0.00 | 0.09 | 0.09 | 91 | 1013.3 |
| 20260506190220 | 55 | 357 | 0.0 | 1.0 | 0.00 | 0.09 | 0.09 | 91 | 1013.3 |
| 20260506185719 | 55 | 12 | 2.0 | 5.0 | 0.00 | 0.09 | 0.09 | 91 | 1013.3 |
| 20260506185219 | 55 | 28 | 1.0 | 3.0 | 0.00 | 0.09 | 0.09 | 91 | 1013.3 |
| 20260506184719 | 55 | 1 | 1.0 | 5.0 | 0.00 | 0.09 | 0.09 | 90 | 1013.3 |
| 20260506184219 | 55 | 30 | 2.0 | 3.0 | 0.00 | 0.09 | 0.09 | 90 | 1013.3 |
| 20260506183719 | 55 | 24 | 3.0 | 6.0 | 0.00 | 0.09 | 0.09 | 90 | 1013.3 |
| 20260506183219 | 55 | 30 | 1.0 | 2.0 | 0.00 | 0.09 | 0.09 | 90 | 1013.4 |
| 20260506182719 | 55 | 345 | 3.0 | 6.0 | 0.00 | 0.09 | 0.09 | 89 | 1013.4 |
| 20260506182219 | 55 | 20 | 2.0 | 5.0 | 0.00 | 0.09 | 0.09 | 89 | 1013.4 |
| 20260506181719 | 55 | 9 | 5.0 | 6.0 | 0.00 | 0.09 | 0.09 | 89 | 1013.4 |
| 20260506181220 | 56 | 303 | 2.0 | 7.0 | 0.00 | 0.09 | 0.09 | 90 | 1013.4 |
| 20260506180720 | 55 | 353 | 3.0 | 6.0 | 0.00 | 0.09 | 0.09 | 90 | 1013.4 |
| 20260506180220 | 55 | 357 | 2.0 | 5.0 | 0.00 | 0.09 | 0.09 | 90 | 1013.4 |
| 20260506175720 | 55 | 358 | 2.0 | 3.0 | 0.00 | 0.09 | 0.09 | 90 | 1013.4 |
| 20260506175220 | 55 | 8 | 3.0 | 6.0 | 0.00 | 0.09 | 0.09 | 90 | 1013.5 |
| 20260506174720 | 55 | 33 | 3.0 | 6.0 | 0.00 | 0.09 | 0.09 | 90 | 1013.5 |
| 20260506174220 | 55 | 341 | 2.0 | 3.0 | 0.00 | 0.09 | 0.09 | 89 | 1013.4 |
| 20260506173720 | 55 | 26 | 3.0 | 5.0 | 0.00 | 0.09 | 0.09 | 89 | 1013.6 |
| 20260506173220 | 56 | 7 | 5.0 | 8.0 | 0.00 | 0.09 | 0.09 | 89 | 1013.7 |
| 20260506172720 | 55 | 5 | 3.0 | 5.0 | 0.00 | 0.09 | 0.09 | 88 | 1013.8 |
| 20260506172220 | 56 | 25 | 1.0 | 6.0 | 0.00 | 0.09 | 0.09 | 88 | 1013.7 |
| 20260506171720 | 56 | 28 | 5.0 | 8.0 | 0.00 | 0.09 | 0.09 | 88 | 1013.7 |
| 20260506171220 | 56 | 20 | 2.0 | 3.0 | 0.00 | 0.09 | 0.09 | 89 | 1013.7 |
| 20260506170720 | 56 | 319 | 3.0 | 6.0 | 0.00 | 0.09 | 0.09 | 89 | 1013.7 |
| 20260506170220 | 56 | 13 | 3.0 | 7.0 | 0.00 | 0.09 | 0.09 | 88 | 1013.7 |
| 20260506165720 | 57 | 32 | 3.0 | 9.0 | 0.00 | 0.09 | 0.09 | 88 | 1013.6 |
| 20260506165220 | 57 | 10 | 5.0 | 7.0 | 0.00 | 0.09 | 0.09 | 86 | 1013.8 |
| 20260506164720 | 57 | 29 | 5.0 | 8.0 | 0.00 | 0.09 | 0.09 | 86 | 1013.7 |
| 20260506164221 | 57 | 10 | 3.0 | 7.0 | 0.00 | 0.09 | 0.09 | 84 | 1013.7 |
| 20260506163721 | 57 | 20 | 3.0 | 6.0 | 0.00 | 0.09 | 0.09 | 84 | 1013.7 |
| 20260506163221 | 56 | 12 | 3.0 | 6.0 | 0.00 | 0.09 | 0.09 | 83 | 1013.7 |
| 20260506162721 | 56 | 13 | 5.0 | 10.0 | 0.00 | 0.09 | 0.09 | 83 | 1013.8 |
| 20260506162221 | 56 | 11 | 6.0 | 8.0 | 0.00 | 0.09 | 0.09 | 83 | 1013.7 |
| 20260506161721 | 56 | 340 | 5.0 | 10.0 | 0.00 | 0.09 | 0.09 | 84 | 1013.8 |
| 20260506161221 | 57 | 28 | 2.0 | 6.0 | 0.00 | 0.09 | 0.09 | 84 | 1013.8 |
| 20260506160721 | 58 | 355 | 2.0 | 6.0 | 0.00 | 0.09 | 0.09 | 84 | 1013.9 |
| 20260506160221 | 58 | 339 | 5.0 | 6.0 | 0.00 | 0.09 | 0.09 | 83 | 1013.8 |
| 20260506155721 | 58 | 7 | 5.0 | 7.0 | 0.00 | 0.09 | 0.09 | 82 | 1013.9 |
| 20260506155221 | 58 | 354 | 6.0 | 9.0 | 0.00 | 0.09 | 0.09 | 81 | 1013.9 |
| 20260506154721 | 58 | 332 | 6.0 | 9.0 | 0.00 | 0.09 | 0.09 | 80 | 1013.9 |
| 20260506154221 | 58 | 342 | 6.0 | 8.0 | 0.00 | 0.09 | 0.09 | 79 | 1014.0 |
| 20260506153721 | 58 | 5 | 5.0 | 7.0 | 0.00 | 0.09 | 0.09 | 81 | 1013.9 |
| 20260506153219 | 58 | 349 | 3.0 | 9.0 | 0.00 | 0.09 | 0.09 | 81 | 1013.9 |
| 20260506152719 | 58 | 352 | 5.0 | 10.0 | 0.00 | 0.09 | 0.09 | 81 | 1014.0 |
| 20260506152219 | 58 | 307 | 5.0 | 8.0 | 0.00 | 0.09 | 0.09 | 82 | 1013.9 |
| 20260506151719 | 58 | 328 | 2.0 | 3.0 | 0.00 | 0.09 | 0.09 | 81 | 1014.0 |
| 20260506151219 | 58 | 334 | 3.0 | 7.0 | 0.00 | 0.09 | 0.09 | 80 | 1014.0 |
| 20260506150719 | 58 | 12 | 3.0 | 3.0 | 0.00 | 0.09 | 0.09 | 80 | 1014.1 |
| 20260506150219 | 58 | 343 | 3.0 | 8.0 | 0.00 | 0.09 | 0.09 | 81 | 1014.1 |
| 20260506145719 | 58 | 11 | 3.0 | 6.0 | 0.00 | 0.09 | 0.09 | 79 | 1014.3 |
| 20260506145219 | 59 | 301 | 3.0 | 5.0 | 0.00 | 0.09 | 0.09 | 78 | 1014.3 |
| 20260506144719 | 59 | 297 | 2.0 | 5.0 | 0.00 | 0.09 | 0.09 | 81 | 1014.3 |
| 20260506144219 | 59 | 26 | 6.0 | 7.0 | 0.00 | 0.09 | 0.09 | 77 | 1014.3 |
| 20260506143719 | 59 | 307 | 3.0 | 5.0 | 0.00 | 0.09 | 0.09 | 78 | 1014.4 |
| 20260506143219 | 59 | 336 | 2.0 | 6.0 | 0.00 | 0.09 | 0.09 | 77 | 1014.5 |
| 20260506142719 | 59 | 41 | 5.0 | 8.0 | 0.00 | 0.09 | 0.09 | 79 | 1014.5 |
| 20260506142219 | 59 | 20 | 6.0 | 9.0 | 0.00 | 0.09 | 0.09 | 78 | 1014.5 |
| 20260506141719 | 59 | 32 | 5.0 | 8.0 | 0.00 | 0.09 | 0.09 | 79 | 1014.5 |
| 20260506141219 | 59 | 314 | 3.0 | 8.0 | 0.00 | 0.09 | 0.09 | 77 | 1014.4 |
| 20260506140719 | 59 | 56 | 3.0 | 5.0 | 0.00 | 0.09 | 0.09 | 79 | 1014.5 |
| 20260506140219 | 58 | 350 | 3.0 | 7.0 | 0.00 | 0.09 | 0.09 | 79 | 1014.6 |
| 20260506135719 | 59 | 347 | 3.0 | 8.0 | 0.00 | 0.09 | 0.09 | 80 | 1014.5 |
| 20260506135219 | 58 | 2 | 3.0 | 6.0 | 0.00 | 0.09 | 0.09 | 80 | 1014.6 |
| 20260506134719 | 58 | 294 | 3.0 | 6.0 | 0.00 | 0.09 | 0.09 | 80 | 1014.7 |
| 20260506134219 | 58 | 359 | 3.0 | 5.0 | 0.00 | 0.09 | 0.09 | 79 | 1014.6 |
| 20260506133718 | 58 | 342 | 6.0 | 10.0 | 0.00 | 0.09 | 0.09 | 80 | 1014.6 |
| 20260506133219 | 58 | 306 | 2.0 | 6.0 | 0.00 | 0.09 | 0.09 | 80 | 1014.7 |
| 20260506132719 | 58 | 339 | 6.0 | 6.0 | 0.00 | 0.09 | 0.09 | 76 | 1014.6 |
| 20260506132219 | 59 | 314 | 2.0 | 3.0 | 0.00 | 0.09 | 0.09 | 77 | 1014.7 |
| 20260506131719 | 59 | 9 | 2.0 | 5.0 | 0.00 | 0.09 | 0.09 | 77 | 1014.7 |
| 20260506131219 | 59 | 5 | 5.0 | 8.0 | 0.00 | 0.09 | 0.09 | 79 | 1014.7 |
| 20260506130719 | 60 | 331 | 3.0 | 7.0 | 0.00 | 0.09 | 0.09 | 77 | 1014.8 |
| 20260506130219 | 59 | 298 | 3.0 | 5.0 | 0.00 | 0.09 | 0.09 | 78 | 1014.7 |
| 20260506125719 | 59 | 42 | 5.0 | 6.0 | 0.00 | 0.09 | 0.09 | 78 | 1014.9 |
| 20260506125219 | 58 | 279 | 3.0 | 6.0 | 0.00 | 0.09 | 0.09 | 76 | 1014.8 |
| 20260506124719 | 59 | 20 | 5.0 | 8.0 | 0.00 | 0.09 | 0.09 | 78 | 1014.9 |
| 20260506124219 | 58 | 338 | 2.0 | 5.0 | 0.00 | 0.09 | 0.09 | 78 | 1014.8 |
| 20260506123719 | 58 | 35 | 3.0 | 12.0 | 0.00 | 0.09 | 0.09 | 79 | 1014.8 |
| 20260506123219 | 58 | 28 | 3.0 | 7.0 | 0.00 | 0.09 | 0.09 | 77 | 1014.9 |
| 20260506122719 | 59 | 350 | 3.0 | 7.0 | 0.00 | 0.09 | 0.09 | 81 | 1015.1 |
| 20260506122219 | 59 | 292 | 5.0 | 8.0 | 0.00 | 0.09 | 0.09 | 81 | 1015.0 |
| 20260506121719 | 58 | 300 | 3.0 | 6.0 | 0.00 | 0.09 | 0.09 | 82 | 1015.1 |
| 20260506121218 | 58 | 320 | 2.0 | 3.0 | 0.00 | 0.09 | 0.09 | 79 | 1015.0 |
| 20260506120719 | 58 | 347 | 3.0 | 9.0 | 0.00 | 0.09 | 0.09 | 83 | 1015.1 |
| 20260506120219 | 58 | 313 | 0.0 | 0.0 | 0.00 | 0.09 | 0.09 | 83 | 1015.2 |
| 20260506115719 | 58 | 318 | 0.0 | 0.0 | 0.00 | 0.09 | 0.09 | 83 | 1015.2 |
| 20260506115219 | 58 | 335 | 0.0 | 0.0 | 0.00 | 0.09 | 0.09 | 84 | 1015.1 |
| 20260506114719 | 57 | 16 | 0.0 | 0.0 | 0.00 | 0.09 | 0.09 | 83 | 1015.2 |
| 20260506114219 | 57 | 312 | 0.0 | 0.0 | 0.00 | 0.09 | 0.09 | 83 | 1015.2 |
| 20260506113719 | 56 | 354 | 0.0 | 0.0 | 0.00 | 0.09 | 0.09 | 82 | 1015.3 |
| 20260506113219 | 56 | 83 | 0.0 | 0.0 | 0.00 | 0.10 | 0.09 | 82 | 1015.3 |
| 20260506112719 | 56 | 343 | 0.0 | 0.0 | 0.00 | 0.10 | 0.09 | 86 | 1015.2 |
| 20260506112219 | 55 | 308 | 0.0 | 0.0 | 0.00 | 0.10 | 0.09 | 89 | 1015.3 |
| 20260506111719 | 55 | 293 | 0.0 | 0.0 | 0.00 | 0.10 | 0.09 | 90 | 1015.3 |
| 20260506111219 | 55 | 308 | 0.0 | 0.0 | 0.00 | 0.10 | 0.09 | 90 | 1015.4 |
| 20260506110719 | 56 | 296 | 0.0 | 0.0 | 0.00 | 0.10 | 0.09 | 89 | 1015.4 |
| 20260506110218 | 56 | 297 | 0.0 | 0.0 | 0.00 | 0.10 | 0.09 | 88 | 1015.3 |
| 20260506105719 | 56 | 332 | 0.0 | 0.0 | 0.00 | 0.10 | 0.09 | 88 | 1015.3 |
| 20260506105219 | 56 | 28 | 0.0 | 0.0 | 0.00 | 0.10 | 0.09 | 88 | 1015.4 |
| 20260506104718 | 57 | 68 | 0.0 | 0.0 | 0.00 | 0.10 | 0.09 | 88 | 1015.2 |
| 20260506104219 | 57 | 234 | 0.0 | 0.0 | 0.00 | 0.10 | 0.09 | 88 | 1015.1 |
| 20260506103719 | 57 | 126 | 0.0 | 0.0 | 0.00 | 0.10 | 0.09 | 89 | 1015.2 |
| 20260506103218 | 57 | 113 | 0.0 | 0.0 | 0.00 | 0.10 | 0.09 | 90 | 1015.3 |
| 20260506102719 | 57 | 199 | 0.0 | 0.0 | 0.00 | 0.10 | 0.09 | 93 | 1015.3 |
| 20260506102218 | 56 | 194 | 0.0 | 0.0 | 0.00 | 0.10 | 0.09 | 92 | 1015.2 |
| 20260506101720 | 55 | 262 | 0.0 | 0.0 | 0.00 | 0.10 | 0.09 | 92 | 1015.3 |
| 20260506101219 | 55 | 269 | 0.0 | 0.0 | 0.00 | 0.10 | 0.09 | 92 | 1015.2 |
| 20260506100718 | 55 | 229 | 0.0 | 0.0 | 0.00 | 0.10 | 0.09 | 92 | 1015.2 |
| 20260506100219 | 55 | 223 | 0.0 | 0.0 | 0.00 | 0.10 | 0.09 | 91 | 1015.2 |
| 20260506095719 | 55 | 257 | 0.0 | 0.0 | 0.00 | 0.11 | 0.09 | 91 | 1015.1 |
| 20260506095219 | 56 | 247 | 0.0 | 0.0 | 0.00 | 0.12 | 0.09 | 91 | 1015.1 |
| 20260506094718 | 56 | 257 | 0.0 | 0.0 | 0.00 | 0.12 | 0.09 | 91 | 1015.2 |
| 20260506094219 | 55 | 294 | 0.0 | 0.0 | 0.00 | 0.12 | 0.09 | 91 | 1015.1 |
| 20260506093719 | 55 | 288 | 0.0 | 0.0 | 0.00 | 0.12 | 0.09 | 92 | 1015.2 |
| 20260506093218 | 55 | 287 | 0.0 | 0.0 | 0.00 | 0.12 | 0.09 | 94 | 1015.1 |
| 20260506092719 | 54 | 283 | 0.0 | 0.0 | 0.00 | 0.12 | 0.09 | 94 | 1015.2 |
| 20260506092218 | 54 | 293 | 0.0 | 0.0 | 0.00 | 0.12 | 0.09 | 95 | 1015.1 |
| 20260506091720 | 54 | 289 | 0.0 | 0.0 | 0.00 | 0.12 | 0.09 | 96 | 1015.2 |
| 20260506091219 | 54 | 288 | 0.0 | 0.0 | 0.00 | 0.12 | 0.09 | 96 | 1015.0 |
| 20260506090718 | 54 | 296 | 0.0 | 0.0 | 0.00 | 0.12 | 0.09 | 96 | 1015.2 |
| 20260506090218 | 54 | 276 | 0.0 | 0.0 | 0.00 | 0.12 | 0.09 | 97 | 1015.1 |
| 20260506085718 | 54 | 24 | 0.0 | 0.0 | 0.00 | 0.12 | 0.09 | 98 | 1015.0 |
| 20260506085218 | 54 | 28 | 0.0 | 0.0 | 0.00 | 0.12 | 0.09 | 98 | 1015.1 |
| 20260506084718 | 54 | 28 | 0.0 | 0.0 | 0.00 | 0.12 | 0.09 | 98 | 1015.1 |
| 20260506084218 | 54 | 214 | 0.0 | 0.0 | 0.00 | 0.12 | 0.09 | 99 | 1015.0 |
| 20260506083718 | 54 | 200 | 0.0 | 0.0 | 0.00 | 0.12 | 0.09 | 99 | 1015.1 |
| 20260506083218 | 53 | 269 | 0.0 | 1.0 | 0.00 | 0.12 | 0.09 | 99 | 1015.1 |
| 20260506082718 | 53 | 257 | 0.0 | 1.0 | 0.00 | 0.12 | 0.09 | 99 | 1015.1 |
| 20260506082218 | 53 | 259 | 0.0 | 0.0 | 0.00 | 0.12 | 0.09 | 99 | 1015.2 |
| 20260506081718 | 53 | 272 | 0.0 | 2.0 | 0.00 | 0.12 | 0.09 | 98 | 1015.1 |
| 20260506081218 | 53 | 268 | 0.0 | 0.0 | 0.00 | 0.12 | 0.09 | 99 | 1015.1 |
| 20260506080718 | 53 | 259 | 0.0 | 0.0 | 0.00 | 0.12 | 0.09 | 99 | 1015.2 |
| 20260506080220 | 53 | 197 | 0.0 | 0.0 | 0.00 | 0.12 | 0.09 | 99 | 1015.1 |
| 20260506073220 | 51 | 210 | 0.0 | 0.0 | 0.01 | 0.12 | 0.09 | 99 | 1015.2 |
| 20260506072720 | 51 | 210 | 0.0 | 0.0 | 0.01 | 0.12 | 0.09 | 99 | 1015.1 |
| 20260506072220 | 51 | 241 | 0.0 | 0.0 | 0.01 | 0.12 | 0.09 | 99 | 1015.1 |
| 20260506071720 | 51 | 241 | 0.0 | 0.0 | 0.01 | 0.12 | 0.09 | 99 | 1015.0 |
| 20260506071220 | 51 | 239 | 0.0 | 0.0 | 0.02 | 0.12 | 0.09 | 99 | 1015.0 |
| 20260506070720 | 51 | 127 | 0.0 | 1.0 | 0.02 | 0.12 | 0.09 | 99 | 1014.9 |
| 20260506070220 | 51 | 269 | 0.0 | 0.0 | 0.02 | 0.12 | 0.09 | 99 | 1015.0 |
| 20260506062218 | 49 | 104 | 0.0 | 0.0 | 0.07 | 0.11 | 0.08 | 99 | 1014.8 |
| 20260506061719 | 49 | 104 | 0.0 | 0.0 | 0.07 | 0.11 | 0.08 | 99 | 1014.8 |
| 20260506061219 | 49 | 104 | 0.0 | 0.0 | 0.06 | 0.10 | 0.07 | 99 | 1014.9 |
| 20260506060719 | 49 | 104 | 0.0 | 0.0 | 0.06 | 0.10 | 0.07 | 99 | 1014.8 |
| 20260506060219 | 49 | 104 | 0.0 | 0.0 | 0.06 | 0.10 | 0.07 | 99 | 1014.9 |
| 20260506051219 | 48 | 280 | 0.0 | 0.0 | 0.00 | 0.04 | 0.01 | 99 | 1014.7 |
| 20260506050719 | 48 | 280 | 0.0 | 0.0 | 0.00 | 0.04 | 0.01 | 99 | 1014.8 |
| 20260506050219 | 48 | 280 | 0.0 | 1.0 | 0.00 | 0.04 | 0.01 | 99 | 1014.8 |
| 20260506044719 | 48 | 126 | 0.0 | 0.0 | 0.01 | 0.04 | 0.01 | 99 | 1014.7 |
| 20260506044219 | 48 | 126 | 0.0 | 0.0 | 0.01 | 0.04 | 0.01 | 99 | 1014.8 |
| 20260506043719 | 48 | 126 | 0.0 | 0.0 | 0.01 | 0.04 | 0.01 | 99 | 1014.8 |
| 20260506043219 | 48 | 126 | 0.0 | 0.0 | 0.01 | 0.04 | 0.01 | 99 | 1014.8 |
| 20260506042719 | 48 | 126 | 0.0 | 0.0 | 0.01 | 0.04 | 0.01 | 99 | 1014.8 |
| 20260506042219 | 48 | 126 | 0.0 | 0.0 | 0.01 | 0.04 | 0.01 | 99 | 1014.8 |
| 20260506041719 | 48 | 126 | 0.0 | 0.0 | 0.01 | 0.04 | 0.01 | 99 | 1014.9 |
| 20260506041219 | 48 | 124 | 0.0 | 0.0 | 0.01 | 0.04 | 0.01 | 99 | 1014.9 |
| 20260506040719 | 48 | 122 | 0.0 | 0.0 | 0.01 | 0.04 | 0.01 | 99 | 1015.0 |
| 20260506040219 | 48 | 122 | 0.0 | 0.0 | 0.01 | 0.04 | 0.01 | 99 | 1014.9 |
| 20260506035719 | 48 | 122 | 0.0 | 0.0 | 0.01 | 0.04 | 0.01 | 99 | 1015.0 |
| 20260506035219 | 47 | 117 | 0.0 | 0.0 | 0.01 | 0.04 | 0.01 | 99 | 1015.1 |
| 20260506034719 | 47 | 117 | 0.0 | 0.0 | 0.00 | 0.03 | 0.00 | 99 | 1015.1 |
| 20260506034219 | 47 | 117 | 0.0 | 0.0 | 0.00 | 0.03 | 0.00 | 99 | 1015.1 |
| 20260506033719 | 47 | 117 | 0.0 | 0.0 | 0.00 | 0.03 | 0.00 | 99 | 1015.2 |
| 20260506033219 | 47 | 117 | 0.0 | 0.0 | 0.00 | 0.03 | 0.00 | 98 | 1015.2 |
| 20260506032718 | 47 | 117 | 0.0 | 0.0 | 0.00 | 0.03 | 0.00 | 98 | 1015.3 |
| 20260506032218 | 47 | 117 | 0.0 | 0.0 | 0.00 | 0.03 | 0.00 | 98 | 1015.2 |
| 20260506031718 | 47 | 117 | 0.0 | 0.0 | 0.00 | 0.03 | 0.00 | 98 | 1015.2 |
| 20260506031218 | 47 | 117 | 0.0 | 0.0 | 0.00 | 0.03 | 0.00 | 99 | 1015.3 |
| 20260506030718 | 47 | 117 | 0.0 | 0.0 | 0.00 | 0.03 | 0.00 | 99 | 1015.2 |
| 20260506030218 | 47 | 117 | 0.0 | 0.0 | 0.00 | 0.03 | 0.00 | 99 | 1015.3 |
| 20260506025718 | 47 | 117 | 0.0 | 0.0 | 0.00 | 0.03 | 0.00 | 98 | 1015.2 |